QPF
0.01 0.00 0.00 0.00 0.00 0.00 0.00 0.00 0.00 0.00 0.00 0.00 0.00 0.00 0.00 0.00 0.00 0.00 0.00 0.00 0.00 0.00 0.00 0.00 0.00 0.00 0.00 0.00 0.00 0.00 0.00 0.00 0.00 0.00 0.00 0.00 0.00 0.00 0.00 0.00 0.00 0.00 0.01 0.01
0.00 0.00 0.00 0.00 0.00 0.00 0.00 0.00 0.00 0.00 0.00 0.00 0.00 0.00 0.00 0.00 0.00 0.00 0.00 0.00 0.00 0.00 0.00 0.00 0.00 0.00 0.00 0.00 0.00 0.00 0.00 0.00 0.00 0.00 0.00 0.00 0.00 0.00 0.00 0.01 0.01 0.00 0.00 0.00
0.00 0.00 0.00 0.00 0.00 0.00 0.00 0.00 0.00 0.00 0.00 0.00 0.00 0.00 0.00 0.00 0.00 0.00 0.00 0.00 0.00 0.00 0.00 0.00 0.00 0.00 0.00 0.00 0.00 0.00 0.00 0.00 0.00 0.00 0.00 0.00 0.00 0.00 0.00 0.00 0.00 0.00 0.00 0.00
0.00 0.00 0.00 0.00 0.00 0.00 0.00 0.00 0.00 0.00 0.00 0.00 0.00 0.00 0.00 0.00 0.00 0.00 0.00 0.00 0.00 0.00 0.00 0.00 0.00 0.00 0.00 0.00 0.00 0.00 0.00 0.00 0.00 0.00 0.00 0.00 0.00 0.00 0.00 0.00 0.00 0.00 0.01 0.01
0.00 0.00 0.00 0.00 0.00 0.00 0.00 0.00 0.00 0.00 0.00 0.00 0.00 0.00 0.00 0.00 0.00 0.00 0.00 0.00 0.00 0.00 0.00 0.00 0.00 0.00 0.00 0.00 0.00 0.00 0.00 0.00 0.00 0.00 0.00 0.00 0.00 0.00 0.00 0.00 0.00 0.00 0.01 0.01
0.00 0.00 0.00 0.00 0.00 0.00 0.00 0.00 0.00 0.00 0.00 0.00 0.00 0.00 0.00 0.00 0.00 0.00 0.00 0.00 0.00 0.00 0.00 0.00 0.00 0.00 0.00 0.00 0.00 0.00 0.00 0.00 0.00 0.00 0.00 0.00 0.00 0.00 0.00 0.00 0.00 0.00 0.00 0.00
0.00 0.00 0.00 0.00 0.00 0.00 0.00 0.00 0.00 0.00 0.00 0.00 0.00 0.00 0.00 0.00 0.00 0.00 0.00 0.00 0.00 0.00 0.00 0.00 0.00 0.00 0.00 0.00 0.00 0.00 0.00 0.00 0.00 0.00 0.00 0.00 0.00 0.00 0.00 0.00 0.00 0.00 0.00 0.00
0.00 0.00 0.00 0.00 0.00 0.00 0.00 0.00 0.00 0.00 0.00 0.00 0.00 0.00 0.00 0.00 0.00 0.00 0.00 0.00 0.00 0.00 0.00 0.00 0.00 0.00 0.00 0.00 0.00 0.00 0.00 0.00 0.00 0.00 0.00 0.00 0.00 0.00 0.00 0.00 0.00 0.00 0.00 0.00
0.00 0.00 0.00 0.00 0.00 0.00 0.00 0.00 0.00 0.00 0.00 0.00 0.00 0.00 0.00 0.00 0.00 0.00 0.00 0.00 0.00 0.00 0.00 0.00 0.00 0.00 0.00 0.00 0.00 0.00 0.00 0.00 0.00 0.00 0.00 0.00 0.00 0.00 0.00 0.00 0.00 0.00 0.00 0.00
0.00 0.00 0.00 0.00 0.00 0.00 0.00 0.00 0.00 0.00 0.00 0.00 0.00 0.00 0.00 0.00 0.00 0.00 0.00 0.00 0.00 0.00 0.00 0.00 0.00 0.00 0.00 0.00 0.00 0.00 0.00 0.00 0.00 0.00 0.00 0.00 0.00 0.00 0.00 0.00 0.00 0.00 0.00 0.01
0.00 0.00 0.00 0.00 0.00 0.00 0.00 0.00 0.00 0.00 0.00 0.00 0.00 0.00 0.00 0.00 0.00 0.00 0.00 0.00 0.00 0.00 0.00 0.00 0.00 0.00 0.00 0.00 0.00 0.00 0.00 0.00 0.00 0.00 0.00 0.00 0.00 0.00 0.00 0.00 0.00 0.01 0.00 0.00
0.00 0.00 0.00 0.00 0.00 0.00 0.00 0.00 0.00 0.00 0.00 0.00 0.00 0.00 0.00 0.00 0.00 0.00 0.00 0.00 0.00 0.00 0.00 0.00 0.00 0.00 0.00 0.00 0.00 0.00 0.00 0.00 0.00 0.00 0.00 0.00 0.00 0.00 0.00 0.00 0.00 0.00 0.00 0.00
0.00 0.00 0.00 0.00 0.00 0.00 0.00 0.00 0.00 0.00 0.00 0.00 0.00 0.00 0.00 0.00 0.00 0.00 0.00 0.00 0.00 0.00 0.00 0.00 0.00 0.00 0.00 0.00 0.00 0.00 0.00 0.00 0.00 0.00 0.00 0.00 0.00 0.00 0.00 0.00 0.00 0.00 0.00 0.00
0.00 0.00 0.00 0.00 0.00 0.00 0.00 0.00 0.00 0.00 0.00 0.00 0.00 0.00 0.00 0.00 0.00 0.00 0.00 0.00 0.00 0.00 0.00 0.00 0.00 0.00 0.00 0.00 0.00 0.00 0.00 0.00 0.00 0.00 0.00 0.00 0.00 0.00 0.00 0.00 0.00 0.00 0.00 0.00
0.00 0.00 0.00 0.00 0.00 0.00 0.00 0.00 0.00 0.00 0.00 0.00 0.00 0.00 0.00 0.00 0.00 0.00 0.00 0.00 0.00 0.00 0.00 0.00 0.00 0.00 0.00 0.00 0.00 0.00 0.00 0.00 0.00 0.00 0.00 0.00 0.00 0.00 0.00 0.00 0.00 0.00 0.00 0.00
0.00 0.00 0.00 0.00 0.00 0.00 0.00 0.00 0.00 0.00 0.00 0.00 0.00 0.00 0.00 0.00 0.00 0.00 0.00 0.00 0.00 0.00 0.00 0.00 0.00 0.00 0.00 0.00 0.00 0.00 0.00 0.00 0.00 0.00 0.00 0.00 0.00 0.00 0.00 0.00 0.00 0.00 0.00 0.00
0.00 0.00 0.00 0.00 0.00 0.00 0.00 0.00 0.00 0.00 0.00 0.00 0.00 0.00 0.00 0.00 0.00 0.00 0.00 0.00 0.00 0.00 0.00 0.00 0.00 0.00 0.00 0.00 0.00 0.00 0.00 0.00 0.00 0.00 0.00 0.00 0.00 0.00 0.00 0.00 0.00 0.00 0.00 0.00
0.00 0.00 0.00 0.00 0.00 0.00 0.00 0.00 0.00 0.00 0.00 0.00 0.00 0.00 0.00 0.00 0.00 0.00 0.00 0.00 0.00 0.00 0.00 0.00 0.00 0.00 0.00 0.00 0.00 0.00 0.00 0.00 0.00 0.00 0.00 0.00 0.00 0.00 0.00 0.00 0.00 0.00 0.00 0.00
0.00 0.00 0.00 0.00 0.00 0.00 0.00 0.00 0.00 0.00 0.00 0.00 0.00 0.00 0.00 0.00 0.00 0.00 0.00 0.00 0.00 0.00 0.00 0.00 0.00 0.00 0.00 0.00 0.00 0.00 0.00 0.00 0.00 0.00 0.00 0.00 0.00 0.00 0.00 0.00 0.00 0.00 0.00 0.00
0.00 0.00 0.00 0.00 0.00 0.00 0.00 0.00 0.00 0.00 0.00 0.00 0.00 0.00 0.00 0.00 0.00 0.00 0.00 0.00 0.00 0.00 0.00 0.00 0.00 0.00 0.00 0.00 0.00 0.00 0.00 0.00 0.00 0.00 0.00 0.00 0.00 0.00 0.00 0.00 0.00 0.00 0.00 0.00
0.00 0.00 0.00 0.00 0.00 0.00 0.00 0.00 0.00 0.00 0.00 0.00 0.00 0.00 0.00 0.00 0.00 0.00 0.00 0.00 0.00 0.00 0.00 0.00 0.00 0.00 0.00 0.00 0.00 0.00 0.00 0.00 0.00 0.00 0.00 0.00 0.00 0.00 0.00 0.00 0.00 0.00 0.00 0.00
0.00 0.00 0.00 0.00 0.00 0.00 0.00 0.00 0.00 0.00 0.00 0.00 0.00 0.00 0.00 0.00 0.00 0.00 0.00 0.00 0.00 0.00 0.00 0.00 0.00 0.00 0.00 0.00 0.00 0.00 0.00 0.00 0.00 0.00 0.00 0.00 0.00 0.00 0.00 0.00 0.00 0.00 0.00 0.00
0.00 0.00 0.00 0.00 0.00 0.00 0.00 0.00 0.00 0.00 0.00 0.00 0.00 0.00 0.00 0.00 0.00 0.00 0.00 0.00 0.00 0.00 0.00 0.00 0.00 0.00 0.00 0.00 0.00 0.00 0.00 0.00 0.00 0.00 0.00 0.00 0.00 0.00 0.00 0.00 0.00 0.00 0.00 0.00
0.00 0.00 0.00 0.00 0.00 0.00 0.00 0.00 0.00 0.00 0.00 0.00 0.00 0.00 0.00 0.00 0.00 0.00 0.00 0.00 0.00 0.00 0.00 0.00 0.00 0.00 0.00 0.00 0.00 0.00 0.00 0.00 0.00 0.00 0.00 0.00 0.00 0.00 0.00 0.00 0.00 0.00 0.00 0.00
0.00 0.00 0.00 0.00 0.00 0.00 0.00 0.00 0.00 0.00 0.00 0.00 0.00 0.00 0.00 0.00 0.00 0.00 0.00 0.00 0.00 0.00 0.00 0.00 0.00 0.00 0.00 0.00 0.00 0.00 0.00 0.00 0.00 0.00 0.00 0.00 0.00 0.00 0.00 0.00 0.00 0.00 0.00 0.00
0.00 0.00 0.00 0.00 0.00 0.00 0.00 0.00 0.00 0.00 0.00 0.00 0.00 0.00 0.00 0.00 0.00 0.00 0.00 0.00 0.00 0.00 0.00 0.00 0.00 0.00 0.00 0.00 0.00 0.00 0.00 0.00 0.00 0.00 0.00 0.00 0.00 0.00 0.00 0.00 0.00 0.00 0.00 0.00
0.00 0.00 0.00 0.00 0.00 0.00 0.00 0.00 0.00 0.00 0.00 0.00 0.00 0.00 0.00 0.00 0.00 0.00 0.00 0.00 0.00 0.00 0.00 0.00 0.00 0.00 0.00 0.00 0.00 0.00 0.00 0.00 0.00 0.00 0.00 0.00 0.00 0.00 0.00 0.00 0.00 0.00 0.00 0.00
MSLP
1003.67 1004.64 1005.58 1006.50 1008.06 1010.32 1012.10 1013.51 1014.78 1015.29 1015.37 1016.01 1016.28 1015.69 1014.69 1014.30 1014.47 1014.45 1014.90 1015.32 1016.36 1017.36 1017.82 1018.51 1018.81 1019.22 1019.64 1019.97 1019.99 1019.99 1020.19 1020.68 1020.76 1020.35 1019.79 1019.58 1020.00 1020.61 1020.92 1021.57 1021.26 1020.79 1019.78 1017.23
1002.82 1004.05 1005.55 1006.33 1007.36 1009.09 1011.20 1013.42 1014.86 1015.46 1015.34 1015.94 1016.07 1015.15 1014.68 1014.17 1014.50 1014.76 1015.28 1015.79 1016.30 1017.40 1018.15 1018.85 1019.35 1019.44 1019.63 1019.92 1019.90 1019.80 1020.17 1021.14 1021.36 1020.72 1020.39 1019.96 1020.11 1020.33 1020.84 1021.30 1021.17 1020.43 1019.83 1017.38
1002.35 1003.93 1004.96 1005.94 1006.89 1008.66 1009.66 1012.80 1015.12 1015.80 1015.77 1015.59 1014.98 1014.64 1014.64 1014.72 1014.88 1015.25 1015.63 1016.14 1016.58 1017.75 1018.59 1018.87 1019.46 1019.63 1019.82 1020.12 1019.81 1019.96 1020.42 1021.33 1021.43 1021.20 1020.53 1020.59 1020.52 1020.58 1020.95 1021.09 1020.82 1019.86 1019.20 1017.76
1002.00 1003.45 1004.97 1005.80 1006.63 1008.40 1009.42 1011.69 1013.04 1013.11 1014.57 1014.92 1014.60 1014.18 1014.45 1014.64 1015.21 1015.53 1015.79 1016.70 1017.13 1017.51 1018.78 1019.18 1019.28 1019.97 1020.21 1020.13 1020.14 1020.50 1021.12 1021.68 1021.37 1020.69 1020.54 1020.56 1020.65 1020.82 1020.84 1020.77 1020.44 1020.06 1019.15 1018.57
1001.98 1003.49 1004.94 1005.88 1006.76 1008.59 1009.92 1011.11 1011.57 1012.53 1012.77 1013.70 1014.09 1014.12 1014.70 1014.56 1015.05 1015.46 1016.17 1016.80 1017.28 1017.73 1018.18 1018.53 1019.56 1020.05 1020.21 1020.40 1020.79 1021.11 1021.68 1021.84 1021.52 1020.87 1020.19 1020.21 1020.56 1020.81 1020.68 1020.52 1020.47 1020.03 1019.55 1018.94
1002.45 1003.66 1005.05 1006.04 1007.22 1008.39 1009.65 1010.37 1010.39 1010.73 1013.35 1013.60 1013.84 1013.84 1014.12 1014.52 1014.91 1015.84 1016.07 1016.84 1017.43 1017.68 1018.13 1018.63 1019.30 1019.61 1020.03 1020.51 1020.96 1021.70 1022.19 1022.29 1022.08 1021.20 1020.68 1020.57 1020.89 1020.93 1020.91 1020.83 1020.94 1020.84 1020.10 1020.01
1002.75 1004.31 1005.46 1006.51 1007.45 1008.06 1008.98 1009.77 1010.22 1011.33 1013.16 1013.19 1013.08 1013.38 1013.66 1014.51 1015.14 1015.69 1016.73 1016.95 1017.07 1017.94 1018.14 1019.09 1019.63 1019.96 1020.31 1020.78 1021.26 1021.74 1022.35 1022.66 1022.66 1021.95 1021.32 1021.21 1021.06 1020.94 1020.94 1021.05 1021.25 1021.21 1020.79 1020.49
1003.41 1004.64 1005.83 1006.76 1007.47 1008.28 1008.97 1009.74 1009.87 1010.65 1012.65 1012.68 1013.15 1013.61 1014.16 1015.11 1015.59 1016.15 1016.67 1017.09 1017.39 1017.90 1018.78 1019.71 1020.17 1020.67 1020.82 1021.00 1021.41 1022.00 1022.53 1023.01 1023.16 1022.95 1022.42 1021.76 1021.50 1021.30 1021.46 1021.41 1021.51 1021.59 1021.37 1020.96
1004.12 1005.20 1006.25 1006.98 1007.65 1008.32 1008.91 1009.43 1009.90 1010.46 1011.96 1013.23 1012.78 1013.70 1014.54 1015.28 1016.03 1016.85 1017.36 1017.73 1018.01 1018.56 1019.73 1020.32 1021.11 1021.45 1021.37 1021.81 1022.09 1022.47 1023.13 1023.63 1024.26 1023.93 1023.60 1022.48 1021.86 1021.62 1021.56 1021.21 1021.67 1021.89 1021.86 1021.63
1004.82 1005.69 1006.55 1007.23 1007.75 1008.21 1008.50 1009.93 1010.12 1010.50 1012.35 1013.42 1013.35 1013.80 1014.61 1015.37 1016.29 1017.36 1018.08 1018.45 1018.96 1019.43 1020.96 1021.83 1022.16 1022.13 1021.94 1022.46 1022.98 1023.43 1024.06 1024.76 1025.08 1024.87 1024.54 1023.16 1022.32 1021.84 1021.43 1021.92 1022.80 1022.14 1022.18 1022.11
1005.43 1006.17 1006.74 1007.23 1007.70 1008.10 1008.67 1010.07 1009.96 1009.73 1012.24 1013.88 1013.60 1013.85 1014.67 1015.40 1016.09 1017.46 1018.45 1019.09 1019.98 1020.78 1021.80 1022.86 1023.07 1022.92 1022.80 1023.02 1023.11 1023.73 1024.59 1025.18 1025.35 1025.21 1024.83 1023.69 1022.70 1022.14 1022.40 1022.80 1022.47 1022.47 1022.36 1022.35
1005.84 1006.40 1006.83 1007.31 1007.77 1008.22 1008.53 1009.98 1010.13 1009.91 1011.93 1014.51 1014.53 1014.57 1014.58 1014.52 1015.41 1016.80 1018.35 1019.17 1019.83 1020.76 1022.23 1023.47 1023.59 1023.54 1023.53 1023.56 1023.90 1023.89 1024.48 1024.21 1024.47 1024.45 1023.57 1023.06 1022.84 1022.94 1023.04 1022.86 1022.87 1022.68 1022.68 1022.72
1006.40 1006.83 1007.21 1007.64 1008.03 1008.23 1008.34 1009.91 1010.66 1011.03 1013.34 1014.62 1014.89 1015.53 1015.52 1015.08 1015.59 1015.88 1017.46 1019.16 1019.51 1020.45 1021.05 1022.67 1023.40 1023.55 1023.58 1023.72 1023.66 1023.59 1023.54 1023.37 1023.69 1023.82 1022.94 1022.79 1023.10 1022.99 1023.12 1023.05 1023.11 1023.02 1023.10 1023.21
1006.89 1007.31 1007.71 1008.14 1008.44 1008.67 1008.81 1010.24 1011.11 1011.33 1013.44 1015.73 1016.81 1015.97 1016.18 1016.22 1015.91 1016.23 1016.82 1018.03 1019.30 1020.38 1021.26 1022.40 1023.17 1023.34 1023.21 1023.31 1023.15 1023.28 1022.96 1023.01 1023.00 1023.13 1022.71 1022.71 1022.86 1022.94 1023.04 1023.00 1023.19 1023.42 1023.59 1023.88
1007.38 1007.86 1008.28 1008.68 1008.86 1009.18 1009.64 1010.71 1011.87 1011.77 1013.03 1015.85 1017.06 1016.86 1017.19 1016.99 1016.95 1017.39 1017.80 1018.51 1019.71 1021.07 1022.02 1022.94 1023.21 1022.82 1023.06 1023.08 1023.02 1022.77 1022.03 1021.94 1022.31 1022.30 1022.35 1022.77 1023.05 1023.13 1023.06 1023.38 1023.83 1024.07 1024.29 1024.45
1008.10 1008.53 1008.90 1009.21 1009.46 1009.62 1010.12 1011.93 1012.38 1012.44 1012.87 1015.29 1017.62 1018.36 1018.05 1017.99 1018.03 1018.50 1018.99 1019.48 1020.42 1021.34 1022.24 1022.81 1022.68 1022.35 1022.62 1022.99 1022.80 1021.35 1021.16 1021.20 1021.37 1021.76 1022.15 1022.64 1023.17 1023.55 1023.73 1024.10 1024.51 1024.73 1024.93 1025.04
1008.75 1009.14 1009.60 1009.84 1010.04 1010.45 1012.13 1012.99 1013.09 1012.77 1013.13 1015.50 1018.28 1018.85 1018.70 1018.49 1018.90 1019.74 1020.13 1020.36 1021.07 1021.58 1022.41 1022.68 1022.61 1022.43 1022.50 1022.72 1022.27 1021.10 1021.14 1021.33 1021.55 1021.85 1022.32 1023.15 1023.62 1024.15 1024.56 1024.80 1025.03 1025.22 1025.46 1025.62
1009.45 1009.74 1010.23 1010.66 1010.91 1011.57 1012.82 1013.39 1012.95 1012.95 1014.33 1015.71 1018.10 1019.47 1019.29 1019.01 1019.82 1020.54 1020.89 1021.35 1021.68 1022.08 1022.43 1022.62 1022.55 1022.57 1022.56 1022.20 1021.14 1021.10 1021.37 1021.74 1022.14 1022.45 1022.66 1023.27 1024.06 1024.63 1025.04 1025.30 1025.52 1025.68 1025.88 1026.03
1010.06 1010.32 1010.72 1011.14 1012.25 1013.43 1013.94 1013.71 1013.38 1013.56 1014.98 1016.72 1018.15 1019.11 1019.65 1019.52 1020.33 1020.74 1021.38 1021.61 1022.29 1022.50 1022.57 1022.48 1022.59 1022.45 1022.12 1020.92 1020.85 1021.22 1021.56 1021.82 1022.60 1023.20 1023.62 1024.05 1024.55 1025.07 1025.48 1025.77 1026.08 1026.35 1026.53 1026.57
1010.71 1010.98 1011.83 1013.38 1014.15 1013.93 1013.85 1014.11 1014.53 1015.29 1016.49 1017.28 1018.60 1019.02 1019.44 1019.79 1020.50 1021.12 1021.79 1021.88 1022.21 1022.56 1022.39 1022.33 1022.31 1021.71 1020.70 1020.78 1020.78 1021.46 1022.01 1022.40 1022.98 1023.68 1024.29 1024.67 1025.13 1025.61 1026.04 1026.42 1026.77 1027.03 1027.24 1027.34
1011.73 1012.91 1013.92 1014.47 1014.27 1014.35 1015.29 1016.52 1016.89 1017.57 1018.30 1018.39 1018.92 1018.98 1019.23 1019.85 1020.27 1021.09 1021.91 1022.16 1022.28 1022.42 1022.23 1022.32 1022.18 1021.62 1021.42 1021.66 1021.87 1022.36 1022.83 1023.32 1023.83 1024.20 1024.85 1025.37 1025.82 1026.25 1026.53 1026.91 1027.34 1027.65 1027.88 1028.17
1012.18 1012.73 1013.96 1014.59 1015.05 1015.94 1016.79 1018.12 1018.17 1017.94 1018.49 1018.86 1018.98 1019.27 1019.31 1019.91 1020.00 1021.05 1022.14 1022.29 1022.50 1022.22 1022.06 1022.30 1022.15 1021.64 1021.99 1022.30 1022.91 1023.41 1023.87 1024.33 1024.85 1025.26 1025.76 1026.15 1026.55 1026.90 1027.20 1027.60 1027.93 1028.25 1028.50 1028.84
1012.71 1013.47 1014.95 1015.71 1017.03 1017.45 1018.06 1018.34 1018.42 1018.26 1018.19 1018.60 1018.88 1019.75 1019.74 1020.23 1020.61 1021.79 1022.33 1022.58 1022.67 1022.24 1022.34 1022.14 1021.73 1021.97 1022.57 1023.09 1023.60 1024.24 1024.76 1025.27 1025.75 1026.24 1026.59 1026.95 1027.34 1027.59 1028.00 1028.36 1028.54 1028.91 1029.11 1029.28
1014.06 1015.36 1016.80 1017.30 1017.94 1017.76 1017.64 1017.44 1017.40 1017.66 1017.72 1018.30 1018.74 1019.81 1020.01 1020.84 1021.36 1022.42 1023.04 1023.24 1022.81 1023.01 1023.17 1022.40 1022.12 1022.25 1022.88 1023.52 1024.11 1024.69 1025.41 1026.02 1026.49 1026.94 1027.41 1027.87 1028.26 1028.62 1028.90 1029.20 1029.34 1029.52 1029.72 1029.59
1015.47 1016.11 1017.46 1017.90 1017.86 1017.71 1017.49 1017.39 1017.42 1017.68 1017.87 1018.22 1019.08 1020.08 1020.73 1021.77 1022.31 1022.72 1023.19 1023.61 1023.52 1023.26 1023.08 1022.55 1022.69 1022.79 1023.32 1024.00 1024.56 1025.17 1025.92 1026.75 1027.29 1027.72 1028.20 1028.68 1029.01 1029.33 1029.72 1029.71 1029.76 1029.83 1029.89 1029.99
1016.16 1016.97 1017.84 1018.07 1017.93 1017.89 1017.69 1017.77 1017.94 1018.04 1018.16 1018.37 1019.07 1020.78 1021.49 1022.36 1022.55 1023.11 1023.47 1023.75 1023.71 1023.17 1023.00 1022.83 1023.09 1023.46 1023.96 1024.41 1025.06 1025.73 1026.40 1027.11 1027.73 1028.27 1028.73 1029.10 1029.45 1029.79 1029.99 1030.05 1030.12 1030.19 1030.33 1030.30
1017.27 1018.12 1018.19 1018.41 1018.42 1018.50 1018.36 1018.30 1018.56 1018.42 1018.58 1019.44 1019.96 1021.03 1021.68 1022.18 1022.70 1023.25 1023.30 1023.29 1023.14 1023.03 1023.42 1023.45 1023.66 1024.00 1024.55 1025.10 1025.67 1026.22 1026.77 1027.44 1028.05 1028.58 1029.03 1029.33 1029.54 1029.83 1030.16 1030.54 1030.49 1030.47 1030.46 1030.31
Thickness
5472 5476 5478 5470 5471 5459 5454 5449 5443 5448 5453 5445 5448 5458 5480 5498 5494 5496 5492 5488 5482 5475 5473 5470 5467 5464 5459 5459 5456 5449 5445 5431 5419 5426 5430 5431 5426 5407 5392 5373 5394 5397 5403 5421
5469 5470 5465 5465 5467 5461 5451 5437 5434 5437 5444 5426 5426 5464 5474 5485 5484 5485 5482 5478 5479 5472 5463 5454 5455 5454 5453 5447 5447 5444 5440 5417 5389 5421 5417 5425 5419 5419 5416 5402 5395 5394 5392 5428
5465 5462 5460 5459 5461 5454 5453 5431 5418 5422 5432 5434 5447 5460 5465 5465 5470 5470 5468 5466 5467 5456 5452 5449 5443 5446 5447 5437 5440 5444 5432 5414 5410 5395 5411 5401 5403 5406 5403 5402 5397 5411 5408 5422
5461 5458 5451 5450 5455 5447 5446 5431 5429 5439 5428 5426 5445 5455 5460 5458 5456 5459 5460 5455 5456 5452 5442 5441 5440 5436 5431 5433 5436 5424 5414 5394 5401 5407 5406 5404 5401 5398 5392 5394 5403 5402 5414 5412
5453 5449 5444 5445 5446 5438 5436 5431 5430 5436 5445 5441 5443 5449 5445 5453 5451 5451 5450 5445 5447 5445 5441 5435 5427 5427 5423 5423 5417 5412 5397 5376 5383 5396 5409 5403 5401 5392 5391 5400 5396 5394 5401 5404
5440 5440 5438 5439 5437 5435 5431 5431 5440 5446 5425 5427 5431 5435 5445 5447 5444 5446 5447 5439 5432 5438 5438 5434 5431 5425 5419 5417 5411 5395 5390 5389 5394 5403 5408 5406 5397 5389 5387 5392 5379 5378 5389 5385
5433 5430 5430 5430 5430 5432 5432 5432 5436 5426 5420 5434 5437 5442 5444 5435 5441 5440 5437 5437 5440 5439 5433 5424 5418 5413 5409 5400 5394 5388 5385 5386 5388 5392 5400 5386 5385 5394 5389 5384 5377 5376 5380 5381
5425 5424 5424 5425 5425 5425 5426 5425 5431 5430 5412 5432 5431 5431 5433 5432 5437 5435 5435 5438 5435 5429 5425 5412 5418 5405 5414 5411 5402 5385 5383 5383 5384 5366 5384 5396 5388 5388 5378 5377 5375 5367 5367 5372
5419 5418 5417 5417 5418 5418 5419 5421 5424 5428 5422 5420 5435 5430 5431 5428 5421 5423 5425 5424 5421 5419 5405 5406 5410 5385 5404 5394 5395 5386 5378 5372 5357 5372 5380 5384 5382 5376 5375 5378 5373 5363 5361 5361
5409 5409 5408 5409 5410 5412 5416 5410 5416 5420 5406 5411 5424 5421 5427 5422 5415 5409 5415 5418 5417 5409 5379 5375 5383 5394 5399 5384 5360 5341 5357 5345 5334 5367 5310 5351 5372 5371 5377 5378 5359 5359 5354 5353
5400 5400 5401 5404 5406 5408 5410 5406 5413 5422 5403 5406 5420 5426 5419 5416 5416 5408 5406 5402 5395 5385 5377 5369 5378 5374 5375 5367 5380 5348 5338 5347 5324 5332 5307 5344 5367 5372 5370 5356 5358 5357 5354 5352
5393 5395 5397 5399 5401 5403 5409 5405 5411 5421 5410 5402 5408 5414 5421 5428 5422 5405 5397 5400 5395 5381 5363 5350 5353 5366 5351 5365 5357 5362 5349 5345 5341 5349 5353 5361 5366 5359 5354 5355 5353 5355 5353 5348
5388 5389 5392 5394 5397 5403 5411 5406 5409 5414 5401 5401 5403 5405 5411 5418 5417 5418 5402 5393 5397 5391 5383 5358 5357 5364 5356 5336 5356 5357 5357 5378 5371 5356 5364 5366 5354 5357 5352 5352 5350 5352 5348 5345
5382 5384 5386 5390 5395 5401 5409 5406 5407 5414 5404 5385 5390 5402 5403 5408 5413 5413 5411 5402 5393 5384 5377 5360 5351 5360 5362 5361 5361 5357 5352 5372 5371 5355 5364 5363 5359 5357 5351 5354 5350 5345 5342 5337
5378 5380 5383 5387 5395 5401 5406 5404 5402 5411 5407 5384 5386 5394 5395 5400 5403 5401 5399 5395 5387 5376 5366 5347 5351 5357 5355 5352 5357 5339 5364 5368 5356 5352 5354 5347 5350 5350 5352 5347 5341 5338 5334 5331
5373 5377 5381 5387 5392 5399 5402 5387 5399 5406 5408 5391 5375 5378 5389 5390 5392 5390 5388 5385 5376 5368 5362 5352 5356 5356 5348 5329 5344 5370 5370 5371 5366 5363 5362 5355 5347 5343 5342 5337 5332 5329 5326 5324
5369 5374 5378 5384 5390 5396 5388 5388 5397 5404 5406 5388 5367 5374 5379 5386 5383 5375 5375 5373 5368 5366 5352 5348 5354 5350 5342 5327 5345 5366 5368 5366 5364 5363 5357 5348 5341 5335 5331 5328 5325 5323 5319 5316
5365 5370 5374 5378 5384 5387 5382 5386 5396 5403 5395 5389 5362 5366 5375 5382 5372 5371 5364 5365 5361 5357 5353 5347 5350 5344 5334 5334 5356 5361 5356 5354 5352 5350 5348 5341 5333 5327 5322 5320 5318 5316 5313 5310
5361 5366 5370 5374 5372 5368 5374 5383 5393 5397 5390 5370 5362 5368 5361 5372 5367 5369 5363 5357 5344 5350 5339 5344 5344 5342 5344 5356 5359 5354 5351 5356 5345 5341 5336 5332 5328 5321 5316 5312 5309 5306 5303 5302
5356 5362 5356 5347 5355 5366 5375 5374 5372 5369 5368 5370 5365 5365 5363 5367 5366 5366 5352 5349 5354 5352 5356 5345 5338 5349 5359 5357 5358 5350 5344 5344 5341 5336 5331 5327 5321 5316 5310 5304 5301 5297 5294 5293
5347 5341 5347 5349 5357 5362 5357 5345 5351 5349 5352 5363 5364 5369 5368 5364 5359 5366 5347 5348 5350 5346 5353 5345 5347 5356 5348 5342 5343 5338 5334 5330 5326 5324 5318 5313 5310 5306 5303 5298 5294 5290 5286 5282
5345 5348 5345 5348 5348 5343 5344 5320 5345 5361 5368 5358 5360 5364 5366 5359 5361 5355 5348 5345 5348 5362 5351 5342 5349 5340 5335 5335 5330 5326 5322 5319 5315 5312 5308 5305 5301 5296 5294 5289 5285 5281 5276 5268
5340 5337 5331 5336 5328 5318 5316 5319 5338 5344 5360 5354 5357 5349 5357 5352 5353 5342 5324 5326 5332 5345 5350 5350 5342 5339 5332 5325 5321 5315 5311 5308 5305 5300 5298 5294 5290 5286 5282 5278 5274 5268 5265 5260
5321 5314 5312 5314 5312 5321 5338 5352 5359 5354 5357 5357 5358 5349 5353 5341 5342 5325 5326 5327 5336 5323 5318 5343 5326 5334 5323 5314 5311 5307 5303 5298 5293 5293 5288 5282 5277 5271 5265 5257 5254 5252 5254 5250
5308 5314 5302 5306 5315 5332 5341 5345 5355 5354 5349 5356 5351 5342 5340 5323 5325 5330 5329 5317 5328 5336 5321 5317 5315 5319 5312 5306 5304 5300 5296 5286 5280 5274 5269 5262 5258 5255 5251 5248 5246 5246 5240 5237
5307 5309 5310 5315 5334 5337 5343 5347 5346 5346 5347 5346 5345 5324 5314 5318 5324 5329 5320 5325 5316 5317 5312 5321 5311 5310 5307 5303 5298 5291 5284 5277 5268 5264 5259 5254 5249 5246 5244 5237 5235 5231 5229 5227
5298 5298 5302 5306 5311 5323 5330 5326 5332 5336 5336 5326 5324 5317 5324 5328 5324 5328 5326 5313 5313 5307 5316 5303 5306 5306 5299 5292 5287 5281 5277 5272 5265 5258 5255 5250 5244 5238 5238 5234 5227 5224 5221 5218